Year,Month,Day,Hour,Minute,Value (Times are PST for temperature in C)
2013,03,25,11,33,10.30
2013,03,25,11,34,10.30
2013,03,25,11,35,10.30
2013,03,25,11,36,10.30
2013,03,25,11,37,10.40
2013,03,25,11,38,10.40
2013,03,25,11,39,10.40
2013,03,25,11,40,10.40
2013,03,25,11,41,10.40
2013,03,25,11,42,10.40
2013,03,25,11,43,10.40
2013,03,25,11,44,10.30
2013,03,25,11,45,10.30
2013,03,25,11,46,10.30
2013,03,25,11,47,10.30
2013,03,25,11,48,10.40
2013,03,25,11,49,10.40
2013,03,25,11,50,10.30
2013,03,25,11,51,10.30
2013,03,25,11,52,10.20
2013,03,25,11,53,10.30
2013,03,25,11,54,10.30
2013,03,25,11,55,10.30
2013,03,25,11,56,10.30
2013,03,25,11,57,10.40
2013,03,25,11,58,10.50
2013,03,25,11,59,10.50
2013,03,25,12,00,10.60
2013,03,25,12,01,10.70
2013,03,25,12,02,10.70
2013,03,25,12,03,10.80
2013,03,25,12,04,10.80
2013,03,25,12,05,10.80
2013,03,25,12,06,10.80
2013,03,25,12,07,10.80
2013,03,25,12,08,10.80
2013,03,25,12,09,10.70
2013,03,25,12,10,10.70
2013,03,25,12,11,10.70
2013,03,25,12,12,10.80
2013,03,25,12,13,10.90
2013,03,25,12,14,11.00
2013,03,25,12,15,11.00
2013,03,25,12,16,11.00
2013,03,25,12,17,10.90
2013,03,25,12,18,10.80
2013,03,25,12,19,10.80
2013,03,25,12,20,10.80
2013,03,25,12,21,10.80
2013,03,25,12,22,10.80
2013,03,25,12,23,10.80
2013,03,25,12,24,10.90
2013,03,25,12,25,10.90
2013,03,25,12,26,10.90
2013,03,25,12,27,10.80
2013,03,25,12,28,10.80
2013,03,25,12,29,10.80
2013,03,25,12,30,10.80
2013,03,25,12,31,10.80
2013,03,25,12,32,10.70
2013,03,25,12,33,10.70
2013,03,25,12,34,10.70
2013,03,25,12,35,10.70
2013,03,25,12,36,10.90
2013,03,25,12,37,11.00
2013,03,25,12,38,11.10
2013,03,25,12,39,11.10
2013,03,25,12,40,11.10
2013,03,25,12,41,11.00
2013,03,25,12,42,11.00
2013,03,25,12,43,11.10
2013,03,25,12,44,11.20
2013,03,25,12,45,11.30
2013,03,25,12,46,11.30
2013,03,25,12,47,11.20
2013,03,25,12,48,11.10
2013,03,25,12,49,11.10
2013,03,25,12,50,11.10
2013,03,25,12,51,11.00
2013,03,25,12,52,11.00
2013,03,25,12,53,10.90
2013,03,25,12,54,10.90
2013,03,25,12,55,10.80
2013,03,25,12,56,10.80
2013,03,25,12,57,10.80
2013,03,25,12,58,10.90
2013,03,25,12,59,10.80
2013,03,25,13,00,10.80
2013,03,25,13,01,10.90
2013,03,25,13,02,10.90
2013,03,25,13,03,10.90
2013,03,25,13,04,10.90
2013,03,25,13,05,10.90
2013,03,25,13,06,10.90
2013,03,25,13,07,10.90
2013,03,25,13,08,10.90
2013,03,25,13,09,10.90
2013,03,25,13,10,11.00
2013,03,25,13,11,11.00
2013,03,25,13,12,11.00
2013,03,25,13,13,11.00
2013,03,25,13,14,11.10
2013,03,25,13,15,11.10
2013,03,25,13,16,11.10
2013,03,25,13,17,11.20
2013,03,25,13,18,11.20
2013,03,25,13,19,11.10
2013,03,25,13,20,11.00
2013,03,25,13,21,10.90
2013,03,25,13,22,10.90
2013,03,25,13,23,10.80
2013,03,25,13,24,10.90
2013,03,25,13,25,11.00
2013,03,25,13,26,11.10
2013,03,25,13,27,11.10
2013,03,25,13,28,11.20
2013,03,25,13,29,11.20
2013,03,25,13,30,11.20
2013,03,25,13,31,11.30
2013,03,25,13,32,11.30
2013,03,25,13,33,11.40
2013,03,25,13,34,11.40
2013,03,25,13,35,11.30
2013,03,25,13,36,11.20
2013,03,25,13,37,11.20
2013,03,25,13,38,11.20
2013,03,25,13,39,11.20
2013,03,25,13,40,11.30
2013,03,25,13,41,11.40
2013,03,25,13,42,11.40
2013,03,25,13,43,11.40
2013,03,25,13,44,11.50
2013,03,25,13,45,11.50
2013,03,25,13,46,11.50
2013,03,25,13,47,11.50
2013,03,25,13,48,11.40
2013,03,25,13,49,11.50
2013,03,25,13,50,11.50
2013,03,25,13,51,11.40
2013,03,25,13,52,11.50
2013,03,25,13,53,11.50
2013,03,25,13,54,11.60
2013,03,25,13,55,11.60
2013,03,25,13,56,11.60
2013,03,25,13,57,11.60
2013,03,25,13,58,11.70
2013,03,25,13,59,11.80
2013,03,25,14,00,11.90
2013,03,25,14,01,11.90
2013,03,25,14,02,11.90
2013,03,25,14,03,11.80
2013,03,25,14,04,11.80
2013,03,25,14,05,11.70
2013,03,25,14,06,11.70
2013,03,25,14,07,11.70
2013,03,25,14,08,11.70
2013,03,25,14,09,11.70
2013,03,25,14,10,11.80
2013,03,25,14,11,11.80
2013,03,25,14,12,11.80
2013,03,25,14,13,11.80
2013,03,25,14,14,11.80
2013,03,25,14,15,11.90
2013,03,25,14,16,12.00
2013,03,25,14,17,12.00
2013,03,25,14,18,12.10
2013,03,25,14,19,12.10
2013,03,25,14,20,12.10
2013,03,25,14,21,12.10
2013,03,25,14,22,12.10
2013,03,25,14,23,12.10
2013,03,25,14,24,12.10
2013,03,25,14,25,12.20
2013,03,25,14,26,12.20
2013,03,25,14,27,12.20
2013,03,25,14,28,12.20
2013,03,25,14,29,12.10
2013,03,25,14,30,12.10
2013,03,25,14,31,12.10
2013,03,25,14,32,12.10
2013,03,25,14,33,12.10
2013,03,25,14,34,12.20
2013,03,25,14,35,12.20
2013,03,25,14,36,12.30
2013,03,25,14,37,12.30
2013,03,25,14,38,12.30
2013,03,25,14,39,12.30
2013,03,25,14,40,12.30
2013,03,25,14,41,12.30
2013,03,25,14,42,12.30
2013,03,25,14,43,12.20
2013,03,25,14,44,12.20
2013,03,25,14,45,12.20
2013,03,25,14,46,12.10
2013,03,25,14,47,12.10
2013,03,25,14,48,12.10
2013,03,25,14,49,12.10
2013,03,25,14,50,12.10
2013,03,25,14,51,12.10
2013,03,25,14,52,12.10
2013,03,25,14,53,12.10
2013,03,25,14,54,12.20
2013,03,25,14,55,12.20
2013,03,25,14,56,12.20
2013,03,25,14,57,12.20
2013,03,25,14,58,12.20
2013,03,25,14,59,12.20
2013,03,25,15,00,12.20
2013,03,25,15,01,12.10
2013,03,25,15,02,12.10
2013,03,25,15,03,12.10
2013,03,25,15,04,12.10
2013,03,25,15,05,12.10
2013,03,25,15,06,12.10
2013,03,25,15,07,12.10
2013,03,25,15,08,12.10
2013,03,25,15,09,12.10
2013,03,25,15,10,12.20
2013,03,25,15,11,12.10
2013,03,25,15,12,12.10
2013,03,25,15,13,12.00
2013,03,25,15,14,12.00
2013,03,25,15,15,12.00
2013,03,25,15,16,12.00
2013,03,25,15,17,12.00
2013,03,25,15,18,12.00
2013,03,25,15,19,11.90
2013,03,25,15,20,11.90
2013,03,25,15,21,12.00
2013,03,25,15,22,12.00
2013,03,25,15,23,12.10
2013,03,25,15,24,12.10
2013,03,25,15,25,12.10
2013,03,25,15,26,12.10
2013,03,25,15,27,12.10
2013,03,25,15,28,12.20
2013,03,25,15,29,12.20
2013,03,25,15,30,12.10
2013,03,25,15,31,12.20
2013,03,25,15,32,12.20
2013,03,25,15,33,12.20
2013,03,25,15,34,12.20
2013,03,25,15,35,12.20
2013,03,25,15,36,12.20
2013,03,25,15,37,12.20
2013,03,25,15,38,12.30
2013,03,25,15,39,12.20
2013,03,25,15,40,12.30
2013,03,25,15,41,12.30
2013,03,25,15,42,12.30
2013,03,25,15,43,12.30
2013,03,25,15,44,12.30
2013,03,25,15,45,12.30
2013,03,25,15,46,12.30
2013,03,25,15,47,12.30
2013,03,25,15,48,12.30
2013,03,25,15,49,12.20
2013,03,25,15,50,12.20
2013,03,25,15,51,12.30
2013,03,25,15,52,12.30
2013,03,25,15,53,12.30
2013,03,25,15,54,12.30
2013,03,25,15,55,12.30
2013,03,25,15,56,12.40
2013,03,25,15,57,12.40
2013,03,25,15,58,12.50
2013,03,25,15,59,12.40
2013,03,25,16,00,12.30
2013,03,25,16,01,12.30
2013,03,25,16,02,12.30
2013,03,25,16,03,12.30
2013,03,25,16,04,12.30
2013,03,25,16,05,12.30
2013,03,25,16,06,12.40
2013,03,25,16,07,12.50
2013,03,25,16,08,12.60
2013,03,25,16,09,12.70
2013,03,25,16,10,12.70
2013,03,25,16,11,12.70
2013,03,25,16,12,12.80
2013,03,25,16,13,12.70
2013,03,25,16,14,12.70
2013,03,25,16,15,12.70
2013,03,25,16,16,12.60
2013,03,25,16,17,12.60
2013,03,25,16,18,12.60
2013,03,25,16,19,12.60
2013,03,25,16,20,12.60
2013,03,25,16,21,12.50
2013,03,25,16,22,12.50
2013,03,25,16,23,12.40
2013,03,25,16,24,12.40
2013,03,25,16,25,12.40
2013,03,25,16,26,12.40
2013,03,25,16,27,12.40
2013,03,25,16,28,12.40
2013,03,25,16,29,12.40
2013,03,25,16,30,12.50
2013,03,25,16,31,12.50
2013,03,25,16,32,12.50
2013,03,25,16,33,12.50
2013,03,25,16,34,12.50
2013,03,25,16,35,12.50
2013,03,25,16,36,12.50
2013,03,25,16,37,12.40
2013,03,25,16,38,12.40
2013,03,25,16,39,12.40
2013,03,25,16,40,12.30
2013,03,25,16,41,12.30
2013,03,25,16,42,12.30
2013,03,25,16,43,12.30
2013,03,25,16,44,12.30
2013,03,25,16,45,12.30
2013,03,25,16,46,12.30
2013,03,25,16,47,12.30
2013,03,25,16,48,12.20
2013,03,25,16,49,12.10
2013,03,25,16,50,12.00
2013,03,25,16,51,11.90
2013,03,25,16,52,11.90
2013,03,25,16,53,12.00
2013,03,25,16,54,12.00
2013,03,25,16,55,12.10
2013,03,25,16,56,12.10
2013,03,25,16,57,12.10
2013,03,25,16,58,12.20
2013,03,25,16,59,12.30
2013,03,25,17,00,12.30
2013,03,25,17,01,12.40
2013,03,25,17,02,12.50
2013,03,25,17,03,12.60
2013,03,25,17,04,12.60
2013,03,25,17,05,12.60
2013,03,25,17,06,12.60
2013,03,25,17,07,12.60
2013,03,25,17,08,12.50
2013,03,25,17,09,12.50
2013,03,25,17,10,12.50
2013,03,25,17,11,12.50
2013,03,25,17,12,12.60
2013,03,25,17,13,12.60
2013,03,25,17,14,12.70
2013,03,25,17,15,12.70
2013,03,25,17,16,12.70
2013,03,25,17,17,12.70
2013,03,25,17,18,12.60
2013,03,25,17,19,12.50
2013,03,25,17,20,12.40
2013,03,25,17,21,12.30
2013,03,25,17,22,12.20
2013,03,25,17,23,12.20
2013,03,25,17,24,12.20
2013,03,25,17,25,12.20
2013,03,25,17,26,12.20
2013,03,25,17,27,12.20
2013,03,25,17,28,12.20
2013,03,25,17,29,12.20
2013,03,25,17,30,12.20
2013,03,25,17,31,12.20
2013,03,25,17,32,12.20
2013,03,25,17,33,12.20
2013,03,25,17,34,12.20
2013,03,25,17,35,12.20
2013,03,25,17,36,12.20
2013,03,25,17,37,12.20
2013,03,25,17,38,12.10
2013,03,25,17,39,12.10
2013,03,25,17,40,12.10
2013,03,25,17,41,12.10
2013,03,25,17,42,12.00
2013,03,25,17,43,12.00
2013,03,25,17,44,11.90
2013,03,25,17,45,11.90
2013,03,25,17,46,11.90
2013,03,25,17,47,11.80
2013,03,25,17,48,11.70
2013,03,25,17,49,11.60
2013,03,25,17,50,11.60
2013,03,25,17,51,11.50
2013,03,25,17,52,11.40
2013,03,25,17,53,11.40
2013,03,25,17,54,11.40
2013,03,25,17,55,11.30
2013,03,25,17,56,11.30
2013,03,25,17,57,11.20
2013,03,25,17,58,11.20
2013,03,25,17,59,11.20
2013,03,25,18,00,11.10
2013,03,25,18,01,11.10
2013,03,25,18,02,11.20
2013,03,25,18,03,11.20
2013,03,25,18,04,11.20
2013,03,25,18,05,11.20
2013,03,25,18,06,11.20
2013,03,25,18,07,11.10
2013,03,25,18,08,11.10
2013,03,25,18,09,11.10
2013,03,25,18,10,11.00
2013,03,25,18,11,11.00
2013,03,25,18,12,10.90
2013,03,25,18,13,10.80
2013,03,25,18,14,10.80
2013,03,25,18,15,10.80
2013,03,25,18,16,10.80
2013,03,25,18,17,10.70
2013,03,25,18,18,10.70
2013,03,25,18,19,10.70
2013,03,25,18,20,10.70
2013,03,25,18,21,10.70
2013,03,25,18,22,10.70
2013,03,25,18,23,10.70
2013,03,25,18,24,10.70
2013,03,25,18,25,10.60
2013,03,25,18,26,10.60
2013,03,25,18,27,10.60
2013,03,25,18,28,10.60
2013,03,25,18,29,10.60
2013,03,25,18,30,10.60
2013,03,25,18,31,10.60
2013,03,25,18,32,10.60
2013,03,25,18,33,10.60
2013,03,25,18,34,10.60
2013,03,25,18,35,10.60
2013,03,25,18,36,10.60
2013,03,25,18,37,10.60
2013,03,25,18,38,10.60
2013,03,25,18,39,10.60
2013,03,25,18,40,10.60
2013,03,25,18,41,10.60
2013,03,25,18,42,10.60
2013,03,25,18,43,10.50
2013,03,25,18,44,10.50
2013,03,25,18,45,10.40
2013,03,25,18,46,10.40
2013,03,25,18,47,10.30
2013,03,25,18,48,10.30
2013,03,25,18,49,10.30
2013,03,25,18,50,10.30
2013,03,25,18,51,10.20
2013,03,25,18,52,10.20
2013,03,25,18,53,10.20
2013,03,25,18,54,10.10
2013,03,25,18,55,10.10
2013,03,25,18,56,10.00
2013,03,25,18,57,10.00
2013,03,25,18,58,10.00
2013,03,25,18,59,9.90
2013,03,25,19,00,9.90
2013,03,25,19,01,9.80
2013,03,25,19,02,9.80
2013,03,25,19,03,9.70
2013,03,25,19,04,9.60
2013,03,25,19,05,9.60
2013,03,25,19,06,9.50
2013,03,25,19,07,9.40
2013,03,25,19,08,9.30
2013,03,25,19,09,9.20
2013,03,25,19,10,9.20
2013,03,25,19,11,9.10
2013,03,25,19,12,9.00
2013,03,25,19,13,8.90
2013,03,25,19,14,8.90
2013,03,25,19,15,8.80
2013,03,25,19,16,8.80
2013,03,25,19,17,8.70
2013,03,25,19,18,8.60
2013,03,25,19,19,8.60
2013,03,25,19,20,8.50
2013,03,25,19,21,8.40
2013,03,25,19,22,8.30
2013,03,25,19,23,8.30
2013,03,25,19,24,8.20
2013,03,25,19,25,8.10
2013,03,25,19,26,8.10
2013,03,25,19,27,8.00
2013,03,25,19,28,7.90
2013,03,25,19,29,7.90
2013,03,25,19,30,7.80
2013,03,25,19,31,7.70
2013,03,25,19,32,7.70
2013,03,25,19,33,7.60
2013,03,25,19,34,7.50
2013,03,25,19,35,7.40
2013,03,25,19,36,7.40
2013,03,25,19,37,7.30
2013,03,25,19,38,7.20
2013,03,25,19,39,7.20
2013,03,25,19,40,7.20
2013,03,25,19,41,7.10
2013,03,25,19,42,7.00
2013,03,25,19,43,6.90
2013,03,25,19,44,6.90
2013,03,25,19,45,6.80
2013,03,25,19,46,6.80
2013,03,25,19,47,6.70
2013,03,25,19,48,6.70
2013,03,25,19,49,6.60
2013,03,25,19,50,6.60
2013,03,25,19,51,6.50
2013,03,25,19,52,6.40
2013,03,25,19,53,6.30
2013,03,25,19,54,6.30
2013,03,25,19,55,6.20
2013,03,25,19,56,6.10
2013,03,25,19,57,6.00
2013,03,25,19,58,6.00
2013,03,25,19,59,5.90
2013,03,25,20,00,5.80
2013,03,25,20,01,5.80
2013,03,25,20,02,5.80
2013,03,25,20,03,5.70
2013,03,25,20,04,5.70
2013,03,25,20,05,5.60
2013,03,25,20,06,5.60
2013,03,25,20,07,5.50
2013,03,25,20,08,5.50
2013,03,25,20,09,5.40
2013,03,25,20,10,5.40
2013,03,25,20,11,5.30
2013,03,25,20,12,5.30
2013,03,25,20,13,5.30
2013,03,25,20,14,5.20
2013,03,25,20,15,5.20
2013,03,25,20,16,5.20
2013,03,25,20,17,5.10
2013,03,25,20,18,5.10
2013,03,25,20,19,5.10
2013,03,25,20,20,5.00
2013,03,25,20,21,5.00
2013,03,25,20,22,5.00
2013,03,25,20,23,4.90
2013,03,25,20,24,4.90
2013,03,25,20,25,4.90
2013,03,25,20,26,4.80
2013,03,25,20,27,4.80
2013,03,25,20,28,4.80
2013,03,25,20,29,4.80
2013,03,25,20,30,4.80
2013,03,25,20,31,4.70
2013,03,25,20,32,4.70
2013,03,25,20,33,4.70
2013,03,25,20,34,4.70
2013,03,25,20,35,4.70
2013,03,25,20,36,4.70
2013,03,25,20,37,4.60
2013,03,25,20,38,4.60
2013,03,25,20,39,4.60
2013,03,25,20,40,4.60
2013,03,25,20,41,4.60
2013,03,25,20,42,4.60
2013,03,25,20,43,4.60
2013,03,25,20,44,4.60
2013,03,25,20,45,4.60
2013,03,25,20,46,4.60
2013,03,25,20,47,4.60
